Time,TemperatureF,DewpointF,PressureIn,WindDirection,WindDirectionDegrees,WindSpeedMPH,WindSpeedGustMPH,Humidity,HourlyPrecipIn,Conditions,Clouds,dailyrainin,SoftwareType,DateUTC
2013-04-04 00:00:00,56.0,53.0,-100.00,North,349,18.0,-999.0,88,0.00,,,-99.99,,2013-04-04 05:00:00,
2013-04-04 00:23:00,56.0,53.0,-100.00,North,349,18.0,-999.0,88,0.00,,,-99.99,,2013-04-04 05:23:00,
2013-04-04 00:32:00,56.0,53.0,-100.00,North,349,18.0,-999.0,88,0.00,,,-99.99,,2013-04-04 05:32:00,
2013-04-04 00:42:00,56.0,53.0,-100.00,North,349,18.0,-999.0,88,0.00,,,-99.99,,2013-04-04 05:42:00,
2013-04-04 00:53:00,56.0,53.0,-100.00,North,349,18.0,-999.0,88,0.00,,,-99.99,,2013-04-04 05:53:00,
2013-04-04 01:00:00,56.0,52.0,-100.00,North,2,17.0,-999.0,86,0.00,,,-99.99,,2013-04-04 06:00:00,
2013-04-04 01:22:00,56.0,52.0,-100.00,North,2,17.0,-999.0,86,0.00,,,-99.99,,2013-04-04 06:22:00,
2013-04-04 01:32:00,56.0,52.0,-100.00,North,2,17.0,-999.0,86,0.00,,,-99.99,,2013-04-04 06:32:00,
2013-04-04 01:42:00,56.0,52.0,-100.00,North,2,17.0,-999.0,86,0.00,,,-99.99,,2013-04-04 06:42:00,
2013-04-04 01:53:00,56.0,52.0,-100.00,North,2,17.0,-999.0,86,0.00,,,-99.99,,2013-04-04 06:53:00,
2013-04-04 02:00:00,55.0,52.0,-100.00,North,357,13.0,-999.0,88,0.00,,,-99.99,,2013-04-04 07:00:00,
2013-04-04 02:22:00,55.0,52.0,-100.00,North,357,13.0,-999.0,88,0.00,,,-99.99,,2013-04-04 07:22:00,
2013-04-04 02:32:00,55.0,52.0,-100.00,North,357,13.0,-999.0,88,0.00,,,-99.99,,2013-04-04 07:32:00,
2013-04-04 02:43:00,55.0,52.0,-100.00,North,357,13.0,-999.0,88,0.00,,,-99.99,,2013-04-04 07:43:00,
2013-04-04 02:53:00,55.0,52.0,-100.00,North,357,13.0,-999.0,88,0.00,,,-99.99,,2013-04-04 07:53:00,
2013-04-04 03:00:00,55.0,51.0,-100.00,NNE,16,12.0,-999.0,88,0.00,,,-99.99,,2013-04-04 08:00:00,
2013-04-04 03:23:00,55.0,51.0,-100.00,NNE,16,12.0,-999.0,88,0.00,,,-99.99,,2013-04-04 08:23:00,
2013-04-04 03:32:00,55.0,51.0,-100.00,NNE,16,12.0,-999.0,88,0.00,,,-99.99,,2013-04-04 08:32:00,
2013-04-04 03:43:00,55.0,51.0,-100.00,NNE,16,12.0,-999.0,88,0.00,,,-99.99,,2013-04-04 08:43:00,
2013-04-04 03:52:00,55.0,51.0,-100.00,NNE,16,12.0,-999.0,88,0.00,,,-99.99,,2013-04-04 08:52:00,
2013-04-04 04:00:00,54.0,51.0,-100.00,NNW,337,13.0,-999.0,89,0.00,,,-99.99,,2013-04-04 09:00:00,
2013-04-04 04:22:00,54.0,51.0,-100.00,NNW,337,13.0,-999.0,89,0.00,,,-99.99,,2013-04-04 09:22:00,
2013-04-04 04:33:00,54.0,51.0,-100.00,NNW,337,13.0,-999.0,89,0.00,,,-99.99,,2013-04-04 09:33:00,
2013-04-04 04:43:00,54.0,51.0,-100.00,NNW,337,13.0,-999.0,89,0.00,,,-99.99,,2013-04-04 09:43:00,
2013-04-04 04:54:00,54.0,51.0,-100.00,NNW,337,13.0,-999.0,89,0.00,,,-99.99,,2013-04-04 09:54:00,
2013-04-04 05:00:00,54.0,51.0,-100.00,NW,324,11.0,-999.0,88,0.00,,,-99.99,,2013-04-04 10:00:00,
2013-04-04 05:24:00,54.0,51.0,-100.00,NW,324,11.0,-999.0,88,0.00,,,-99.99,,2013-04-04 10:24:00,
2013-04-04 05:33:00,54.0,51.0,-100.00,NW,324,11.0,-999.0,88,0.00,,,-99.99,,2013-04-04 10:33:00,
2013-04-04 05:42:00,54.0,51.0,-100.00,NW,324,11.0,-999.0,88,0.00,,,-99.99,,2013-04-04 10:42:00,
2013-04-04 05:54:00,54.0,51.0,-100.00,NW,324,11.0,-999.0,88,0.00,,,-99.99,,2013-04-04 10:54:00,
2013-04-04 06:00:00,54.0,50.0,-100.00,NW,325,16.0,-999.0,86,0.00,,,-99.99,,2013-04-04 11:00:00,
2013-04-04 06:22:00,54.0,50.0,-100.00,NW,325,16.0,-999.0,86,0.00,,,-99.99,,2013-04-04 11:22:00,
2013-04-04 06:33:00,54.0,50.0,-100.00,NW,325,16.0,-999.0,86,0.00,,,-99.99,,2013-04-04 11:33:00,
2013-04-04 06:42:00,54.0,50.0,-100.00,NW,325,16.0,-999.0,86,0.00,,,-99.99,,2013-04-04 11:42:00,
2013-04-04 06:54:00,54.0,50.0,-100.00,NW,325,16.0,-999.0,86,0.00,,,-99.99,,2013-04-04 11:54:00,
2013-04-04 07:00:00,54.0,51.0,-100.00,NW,324,13.0,-999.0,89,0.00,,,-99.99,,2013-04-04 12:00:00,
2013-04-04 07:22:00,54.0,51.0,-100.00,NW,324,13.0,-999.0,89,0.00,,,-99.99,,2013-04-04 12:22:00,
2013-04-04 07:32:00,54.0,51.0,-100.00,NW,324,13.0,-999.0,89,0.00,,,-99.99,,2013-04-04 12:32:00,
2013-04-04 07:43:00,54.0,51.0,-100.00,NW,324,13.0,-999.0,89,0.00,,,-99.99,,2013-04-04 12:43:00,
2013-04-04 07:52:00,54.0,51.0,-100.00,NW,324,13.0,-999.0,89,0.00,,,-99.99,,2013-04-04 12:52:00,
2013-04-04 08:00:00,54.0,51.0,-100.00,NW,318,17.0,-999.0,91,0.00,,,-99.99,,2013-04-04 13:00:00,
2013-04-04 08:22:00,54.0,51.0,-100.00,NW,318,17.0,-999.0,91,0.00,,,-99.99,,2013-04-04 13:22:00,
2013-04-04 08:32:00,54.0,51.0,-100.00,NW,318,17.0,-999.0,91,0.00,,,-99.99,,2013-04-04 13:32:00,
2013-04-04 08:42:00,54.0,51.0,-100.00,NW,318,17.0,-999.0,91,0.00,,,-99.99,,2013-04-04 13:42:00,
2013-04-04 08:53:00,54.0,51.0,-100.00,NW,318,17.0,-999.0,91,0.00,,,-99.99,,2013-04-04 13:53:00,
2013-04-04 09:00:00,54.0,50.0,-100.00,NW,321,15.0,-999.0,88,0.00,,,-99.99,,2013-04-04 14:00:00,
2013-04-04 09:22:00,54.0,50.0,-100.00,NW,321,15.0,-999.0,88,0.00,,,-99.99,,2013-04-04 14:22:00,
2013-04-04 09:33:00,54.0,50.0,-100.00,NW,321,15.0,-999.0,88,0.00,,,-99.99,,2013-04-04 14:33:00,
2013-04-04 09:42:00,54.0,50.0,-100.00,NW,321,15.0,-999.0,88,0.00,,,-99.99,,2013-04-04 14:42:00,
2013-04-04 09:53:00,54.0,50.0,-100.00,NW,321,15.0,-999.0,88,0.00,,,-99.99,,2013-04-04 14:53:00,
2013-04-04 10:00:00,55.0,49.0,-100.00,NW,316,16.0,-999.0,83,0.00,,,-99.99,,2013-04-04 15:00:00,
2013-04-04 10:23:00,55.0,49.0,-100.00,NW,316,16.0,-999.0,83,0.00,,,-99.99,,2013-04-04 15:23:00,
2013-04-04 10:33:00,55.0,49.0,-100.00,NW,316,16.0,-999.0,83,0.00,,,-99.99,,2013-04-04 15:33:00,
2013-04-04 10:43:00,55.0,49.0,-100.00,NW,316,16.0,-999.0,83,0.00,,,-99.99,,2013-04-04 15:43:00,
2013-04-04 10:54:00,55.0,49.0,-100.00,NW,316,16.0,-999.0,83,0.00,,,-99.99,,2013-04-04 15:54:00,
2013-04-04 11:00:00,56.0,49.0,-100.00,NNW,328,16.0,-999.0,78,0.00,,,-99.99,,2013-04-04 16:00:00,
2013-04-04 11:24:00,56.0,49.0,-100.00,NNW,328,16.0,-999.0,78,0.00,,,-99.99,,2013-04-04 16:24:00,
2013-04-04 11:32:00,56.0,49.0,-100.00,NNW,328,16.0,-999.0,78,0.00,,,-99.99,,2013-04-04 16:32:00,
2013-04-04 11:42:00,56.0,49.0,-100.00,NNW,328,16.0,-999.0,78,0.00,,,-99.99,,2013-04-04 16:42:00,
2013-04-04 11:53:00,56.0,49.0,-100.00,NNW,328,16.0,-999.0,78,0.00,,,-99.99,,2013-04-04 16:53:00,
2013-04-04 12:00:00,57.0,49.0,-100.00,NW,318,16.0,-999.0,73,0.00,,,-99.99,,2013-04-04 17:00:00,
2013-04-04 12:23:00,57.0,49.0,-100.00,NW,318,16.0,-999.0,73,0.00,,,-99.99,,2013-04-04 17:23:00,
2013-04-04 12:33:00,57.0,49.0,-100.00,NW,318,16.0,-999.0,73,0.00,,,-99.99,,2013-04-04 17:33:00,
2013-04-04 12:42:00,57.0,49.0,-100.00,NW,318,16.0,-999.0,73,0.00,,,-99.99,,2013-04-04 17:42:00,
2013-04-04 12:53:00,57.0,49.0,-100.00,NW,318,16.0,-999.0,73,0.00,,,-99.99,,2013-04-04 17:53:00,
2013-04-04 13:00:00,61.0,49.0,-100.00,NW,321,15.0,-999.0,66,0.00,,,-99.99,,2013-04-04 18:00:00,
2013-04-04 13:23:00,61.0,49.0,-100.00,NW,321,15.0,-999.0,66,0.00,,,-99.99,,2013-04-04 18:23:00,
2013-04-04 13:32:00,61.0,49.0,-100.00,NW,321,15.0,-999.0,66,0.00,,,-99.99,,2013-04-04 18:32:00,
2013-04-04 13:43:00,61.0,49.0,-100.00,NW,321,15.0,-999.0,66,0.00,,,-99.99,,2013-04-04 18:43:00,
2013-04-04 13:52:00,61.0,49.0,-100.00,NW,321,15.0,-999.0,66,0.00,,,-99.99,,2013-04-04 18:52:00,
2013-04-04 14:00:00,63.0,49.0,-100.00,NW,325,13.0,-999.0,60,0.00,,,-99.99,,2013-04-04 19:00:00,
2013-04-04 14:22:00,63.0,49.0,-100.00,NW,325,13.0,-999.0,60,0.00,,,-99.99,,2013-04-04 19:22:00,
2013-04-04 14:33:00,63.0,49.0,-100.00,NW,325,13.0,-999.0,60,0.00,,,-99.99,,2013-04-04 19:33:00,
2013-04-04 14:42:00,63.0,49.0,-100.00,NW,325,13.0,-999.0,60,0.00,,,-99.99,,2013-04-04 19:42:00,
2013-04-04 14:52:00,63.0,49.0,-100.00,NW,325,13.0,-999.0,60,0.00,,,-99.99,,2013-04-04 19:52:00,
2013-04-04 15:00:00,64.0,48.0,-100.00,NNW,334,17.0,-999.0,56,0.00,,,-99.99,,2013-04-04 20:00:00,
2013-04-04 15:23:00,64.0,48.0,-100.00,NNW,334,17.0,-999.0,56,0.00,,,-99.99,,2013-04-04 20:23:00,
2013-04-04 15:32:00,64.0,48.0,-100.00,NNW,334,17.0,-999.0,56,0.00,,,-99.99,,2013-04-04 20:32:00,
2013-04-04 15:42:00,64.0,48.0,-100.00,NNW,334,17.0,-999.0,56,0.00,,,-99.99,,2013-04-04 20:42:00,
2013-04-04 15:53:00,64.0,48.0,-100.00,NNW,334,17.0,-999.0,56,0.00,,,-99.99,,2013-04-04 20:53:00,
2013-04-04 16:00:00,65.0,47.0,-100.00,NNW,335,16.0,-999.0,52,0.00,,,-99.99,,2013-04-04 21:00:00,
2013-04-04 16:22:00,65.0,47.0,-100.00,NNW,335,16.0,-999.0,52,0.00,,,-99.99,,2013-04-04 21:22:00,
2013-04-04 16:32:00,65.0,47.0,-100.00,NNW,335,16.0,-999.0,52,0.00,,,-99.99,,2013-04-04 21:32:00,
2013-04-04 16:43:00,65.0,47.0,-100.00,NNW,335,16.0,-999.0,52,0.00,,,-99.99,,2013-04-04 21:43:00,
2013-04-04 16:53:00,65.0,47.0,-100.00,NNW,335,16.0,-999.0,52,0.00,,,-99.99,,2013-04-04 21:53:00,
2013-04-04 17:00:00,66.0,47.0,-100.00,NNW,345,17.0,-999.0,50,0.00,,,-99.99,,2013-04-04 22:00:00,
2013-04-04 17:23:00,66.0,47.0,-100.00,NNW,345,17.0,-999.0,50,0.00,,,-99.99,,2013-04-04 22:23:00,
2013-04-04 17:33:00,66.0,47.0,-100.00,NNW,345,17.0,-999.0,50,0.00,,,-99.99,,2013-04-04 22:33:00,
2013-04-04 17:42:00,66.0,47.0,-100.00,NNW,345,17.0,-999.0,50,0.00,,,-99.99,,2013-04-04 22:42:00,
2013-04-04 17:53:00,66.0,47.0,-100.00,NNW,345,17.0,-999.0,50,0.00,,,-99.99,,2013-04-04 22:53:00,
2013-04-04 18:00:00,67.0,48.0,-100.00,NNW,346,17.0,-999.0,50,0.00,,,-99.99,,2013-04-04 23:00:00,
2013-04-04 18:22:00,67.0,48.0,-100.00,NNW,346,17.0,-999.0,50,0.00,,,-99.99,,2013-04-04 23:22:00,
2013-04-04 18:32:00,67.0,48.0,-100.00,NNW,346,17.0,-999.0,50,0.00,,,-99.99,,2013-04-04 23:32:00,
2013-04-04 18:42:00,67.0,48.0,-100.00,NNW,346,17.0,-999.0,50,0.00,,,-99.99,,2013-04-04 23:42:00,
2013-04-04 18:52:00,67.0,48.0,-100.00,NNW,346,17.0,-999.0,50,0.00,,,-99.99,,2013-04-04 23:52:00,
2013-04-04 19:00:00,66.0,48.0,-100.00,North,7,16.0,-999.0,51,0.00,,,-99.99,,2013-04-05 00:00:00,
2013-04-04 19:22:00,66.0,48.0,-100.00,North,7,16.0,-999.0,51,0.00,,,-99.99,,2013-04-05 00:22:00,
2013-04-04 19:32:00,66.0,48.0,-100.00,North,7,16.0,-999.0,51,0.00,,,-99.99,,2013-04-05 00:32:00,
2013-04-04 19:42:00,66.0,48.0,-100.00,North,7,16.0,-999.0,51,0.00,,,-99.99,,2013-04-05 00:42:00,
2013-04-04 19:52:00,66.0,48.0,-100.00,North,7,16.0,-999.0,51,0.00,,,-99.99,,2013-04-05 00:52:00,
2013-04-04 20:00:00,64.0,48.0,-100.00,NNE,20,16.0,-999.0,56,0.00,,,-99.99,,2013-04-05 01:00:00,
2013-04-04 20:22:00,64.0,48.0,-100.00,NNE,20,16.0,-999.0,56,0.00,,,-99.99,,2013-04-05 01:22:00,
2013-04-04 20:32:00,64.0,48.0,-100.00,NNE,20,16.0,-999.0,56,0.00,,,-99.99,,2013-04-05 01:32:00,
2013-04-04 20:42:00,64.0,48.0,-100.00,NNE,20,16.0,-999.0,56,0.00,,,-99.99,,2013-04-05 01:42:00,
2013-04-04 20:53:00,64.0,48.0,-100.00,NNE,20,16.0,-999.0,56,0.00,,,-99.99,,2013-04-05 01:53:00,
2013-04-04 21:00:00,61.0,48.0,-100.00,NNE,26,15.0,-999.0,62,0.00,,,-99.99,,2013-04-05 02:00:00,
2013-04-04 21:22:00,61.0,48.0,-100.00,NNE,26,15.0,-999.0,62,0.00,,,-99.99,,2013-04-05 02:22:00,
2013-04-04 21:32:00,61.0,48.0,-100.00,NNE,26,15.0,-999.0,62,0.00,,,-99.99,,2013-04-05 02:32:00,
2013-04-04 21:42:00,61.0,48.0,-100.00,NNE,26,15.0,-999.0,62,0.00,,,-99.99,,2013-04-05 02:42:00,
2013-04-04 21:52:00,61.0,48.0,-100.00,NNE,26,15.0,-999.0,62,0.00,,,-99.99,,2013-04-05 02:52:00,
2013-04-04 22:00:00,58.0,48.0,-100.00,NE,37,16.0,-999.0,70,0.00,,,-99.99,,2013-04-05 03:00:00,
2013-04-04 22:22:00,58.0,48.0,-100.00,NE,37,16.0,-999.0,70,0.00,,,-99.99,,2013-04-05 03:22:00,
2013-04-04 22:32:00,58.0,48.0,-100.00,NE,37,16.0,-999.0,70,0.00,,,-99.99,,2013-04-05 03:32:00,
2013-04-04 22:43:00,58.0,48.0,-100.00,NE,37,16.0,-999.0,70,0.00,,,-99.99,,2013-04-05 03:43:00,
2013-04-04 22:54:00,58.0,48.0,-100.00,NE,37,16.0,-999.0,70,0.00,,,-99.99,,2013-04-05 03:54:00,
2013-04-04 23:00:00,57.0,48.0,-100.00,NNE,30,19.0,-999.0,73,0.00,,,-99.99,,2013-04-05 04:00:00,
2013-04-04 23:22:00,57.0,48.0,-100.00,NNE,30,19.0,-999.0,73,0.00,,,-99.99,,2013-04-05 04:22:00,
2013-04-04 23:32:00,57.0,48.0,-100.00,NNE,30,19.0,-999.0,73,0.00,,,-99.99,,2013-04-05 04:32:00,
2013-04-04 23:42:00,57.0,48.0,-100.00,NNE,30,19.0,-999.0,73,0.00,,,-99.99,,2013-04-05 04:42:00,
2013-04-04 23:52:00,57.0,48.0,-100.00,NNE,30,19.0,-999.0,73,0.00,,,-99.99,,2013-04-05 04:52:00,